Time,TemperatureF,DewpointF,PressureIn,WindDirection,WindDirectionDegrees,WindSpeedMPH,WindSpeedGustMPH,Humidity,HourlyPrecipIn,Conditions,Clouds,dailyrainin,SoftwareType,DateUTC
2013-01-27 00:02:00,-18.0,-24.0,-100.00,NNE,15,5.0,8.0,72,0.00,,,0.00,,2013-01-27 09:02:00,
2013-01-27 00:11:00,-18.0,-24.0,-100.00,NNE,15,5.0,8.0,72,0.00,,,0.00,,2013-01-27 09:11:00,
2013-01-27 00:21:00,-18.0,-24.0,-100.00,NW,320,2.0,6.0,72,0.00,,,0.00,,2013-01-27 09:21:00,
2013-01-27 00:32:00,-18.0,-24.0,-100.00,NW,320,2.0,6.0,72,0.00,,,0.00,,2013-01-27 09:32:00,
2013-01-27 00:41:00,-18.0,-24.0,-100.00,NW,320,2.0,6.0,72,0.00,,,0.00,,2013-01-27 09:41:00,
2013-01-27 00:52:00,-19.0,-25.0,-100.00,North,350,6.0,7.0,74,0.00,,,0.00,,2013-01-27 09:52:00,
2013-01-27 01:01:00,-19.0,-25.0,-100.00,North,350,6.0,7.0,74,0.00,,,0.00,,2013-01-27 10:01:00,
2013-01-27 01:11:00,-19.0,-25.0,-100.00,North,350,6.0,7.0,74,0.00,,,0.00,,2013-01-27 10:11:00,
2013-01-27 01:21:00,-19.0,-25.0,-100.00,North,350,6.0,7.0,74,0.00,,,0.00,,2013-01-27 10:21:00,
2013-01-27 01:52:00,-18.0,-25.0,-100.00,North,0,6.0,12.0,69,0.00,,,0.00,,2013-01-27 10:52:00,
2013-01-27 02:01:00,-18.0,-25.0,-100.00,North,0,6.0,12.0,69,0.00,,,0.00,,2013-01-27 11:01:00,
2013-01-27 02:11:00,-18.0,-25.0,-100.00,North,0,6.0,12.0,69,0.00,,,0.00,,2013-01-27 11:11:00,
2013-01-27 02:21:00,-19.0,-26.0,-100.00,North,0,5.0,9.0,68,0.00,,,0.00,,2013-01-27 11:21:00,
2013-01-27 02:31:00,-19.0,-26.0,-100.00,North,0,5.0,9.0,68,0.00,,,0.00,,2013-01-27 11:31:00,
2013-01-27 02:42:00,-19.0,-26.0,-100.00,North,0,5.0,9.0,68,0.00,,,0.00,,2013-01-27 11:42:00,
2013-01-27 02:52:00,-20.0,-27.0,-100.00,North,5,5.0,7.0,70,0.00,,,0.00,,2013-01-27 11:52:00,
2013-01-27 03:02:00,-20.0,-27.0,-100.00,North,5,5.0,7.0,70,0.00,,,0.00,,2013-01-27 12:02:00,
2013-01-27 03:11:00,-20.0,-27.0,-100.00,North,5,5.0,7.0,70,0.00,,,0.00,,2013-01-27 12:11:00,
2013-01-27 03:21:00,-20.0,-27.0,-100.00,NNE,25,6.0,7.0,70,0.00,,,0.00,,2013-01-27 12:21:00,
2013-01-27 03:32:00,-20.0,-27.0,-100.00,NNE,25,6.0,7.0,70,0.00,,,0.00,,2013-01-27 12:32:00,
2013-01-27 03:42:00,-20.0,-27.0,-100.00,NNE,25,6.0,7.0,70,0.00,,,0.00,,2013-01-27 12:42:00,
2013-01-27 03:52:00,-20.0,-27.0,-100.00,NNE,30,6.0,8.0,69,0.00,,,0.00,,2013-01-27 12:52:00,
2013-01-27 04:02:00,-20.0,-27.0,-100.00,NNE,30,6.0,8.0,69,0.00,,,0.00,,2013-01-27 13:02:00,
2013-01-27 04:11:00,-20.0,-27.0,-100.00,NNE,30,6.0,8.0,69,0.00,,,0.00,,2013-01-27 13:11:00,
2013-01-27 04:22:00,-19.0,-27.0,-100.00,NNE,30,6.0,9.0,68,0.00,,,0.00,,2013-01-27 13:22:00,
2013-01-27 04:32:00,-19.0,-27.0,-100.00,NNE,30,6.0,9.0,68,0.00,,,0.00,,2013-01-27 13:32:00,
2013-01-27 04:42:00,-19.0,-27.0,-100.00,NNE,30,6.0,9.0,68,0.00,,,0.00,,2013-01-27 13:42:00,
2013-01-27 04:52:00,-20.0,-28.0,-100.00,North,350,6.0,6.0,68,0.00,,,0.00,,2013-01-27 13:52:00,
2013-01-27 05:01:00,-20.0,-28.0,-100.00,North,350,6.0,6.0,68,0.00,,,0.00,,2013-01-27 14:01:00,
2013-01-27 05:11:00,-20.0,-28.0,-100.00,North,350,6.0,6.0,68,0.00,,,0.00,,2013-01-27 14:11:00,
2013-01-27 05:21:00,-20.0,-27.0,-100.00,North,0,6.0,10.0,69,0.00,,,0.00,,2013-01-27 14:21:00,
2013-01-27 05:32:00,-20.0,-27.0,-100.00,North,0,6.0,10.0,69,0.00,,,0.00,,2013-01-27 14:32:00,
2013-01-27 05:42:00,-20.0,-27.0,-100.00,North,0,6.0,10.0,69,0.00,,,0.00,,2013-01-27 14:42:00,
2013-01-27 05:53:00,-19.0,-27.0,-100.00,North,355,7.0,9.0,67,0.00,,,0.00,,2013-01-27 14:53:00,
2013-01-27 06:01:00,-19.0,-27.0,-100.00,North,355,7.0,9.0,67,0.00,,,0.00,,2013-01-27 15:01:00,
2013-01-27 06:11:00,-19.0,-27.0,-100.00,North,355,7.0,9.0,67,0.00,,,0.00,,2013-01-27 15:11:00,
2013-01-27 06:21:00,-20.0,-27.0,-100.00,North,355,6.0,12.0,67,0.00,,,0.00,,2013-01-27 15:21:00,
2013-01-27 06:32:00,-20.0,-27.0,-100.00,North,355,6.0,12.0,67,0.00,,,0.00,,2013-01-27 15:32:00,
2013-01-27 06:53:00,-22.0,-29.0,-100.00,NW,325,6.0,7.0,69,0.00,,,0.00,,2013-01-27 15:53:00,
2013-01-27 07:02:00,-22.0,-29.0,-100.00,NW,325,6.0,7.0,69,0.00,,,0.00,,2013-01-27 16:02:00,
2013-01-27 07:11:00,-22.0,-29.0,-100.00,NW,325,6.0,7.0,69,0.00,,,0.00,,2013-01-27 16:11:00,
2013-01-27 07:53:00,-21.0,-28.0,-100.00,NW,310,4.0,6.0,67,0.00,,,0.00,,2013-01-27 16:53:00,
2013-01-27 08:01:00,-21.0,-28.0,-100.00,NW,310,4.0,6.0,67,0.00,,,0.00,,2013-01-27 17:01:00,
2013-01-27 08:12:00,-21.0,-28.0,-100.00,NW,310,4.0,6.0,67,0.00,,,0.00,,2013-01-27 17:12:00,
2013-01-27 08:21:00,-20.0,-28.0,-100.00,NNW,340,5.0,8.0,67,0.00,,,0.00,,2013-01-27 17:21:00,
2013-01-27 08:32:00,-20.0,-28.0,-100.00,NNW,340,5.0,8.0,67,0.00,,,0.00,,2013-01-27 17:32:00,
2013-01-27 08:42:00,-20.0,-28.0,-100.00,NNW,340,5.0,8.0,67,0.00,,,0.00,,2013-01-27 17:42:00,
2013-01-27 08:52:00,-20.0,-27.0,-100.00,North,0,6.0,8.0,66,0.00,,,0.00,,2013-01-27 17:52:00,
2013-01-27 09:02:00,-20.0,-27.0,-100.00,North,0,6.0,8.0,66,0.00,,,0.00,,2013-01-27 18:02:00,
2013-01-27 09:22:00,-19.0,-27.0,-100.00,North,10,6.0,11.0,65,0.00,,,0.00,,2013-01-27 18:22:00,
2013-01-27 09:32:00,-19.0,-27.0,-100.00,North,10,6.0,11.0,65,0.00,,,0.00,,2013-01-27 18:32:00,
2013-01-27 09:52:00,-20.0,-28.0,-100.00,North,355,5.0,9.0,65,0.00,,,0.00,,2013-01-27 18:52:00,
2013-01-27 10:21:00,-20.0,-28.0,-100.00,North,0,7.0,10.0,65,0.00,,,0.00,,2013-01-27 19:21:00,
2013-01-27 10:32:00,-20.0,-28.0,-100.00,North,0,7.0,10.0,65,0.00,,,0.00,,2013-01-27 19:32:00,
2013-01-27 10:52:00,-20.0,-28.0,-100.00,North,5,6.0,9.0,65,0.00,,,0.00,,2013-01-27 19:52:00,
2013-01-27 11:02:00,-20.0,-28.0,-100.00,North,5,6.0,9.0,65,0.00,,,0.00,,2013-01-27 20:02:00,
2013-01-27 11:11:00,-20.0,-28.0,-100.00,North,5,6.0,9.0,65,0.00,,,0.00,,2013-01-27 20:11:00,
2013-01-27 11:21:00,-20.0,-28.0,-100.00,North,0,6.0,7.0,66,0.00,,,0.00,,2013-01-27 20:21:00,
2013-01-27 11:32:00,-20.0,-28.0,-100.00,North,0,6.0,7.0,66,0.00,,,0.00,,2013-01-27 20:32:00,
2013-01-27 11:41:00,-20.0,-28.0,-100.00,North,0,6.0,7.0,66,0.00,,,0.00,,2013-01-27 20:41:00,
2013-01-27 11:52:00,-20.0,-28.0,-100.00,NNW,330,5.0,7.0,66,0.00,,,0.00,,2013-01-27 20:52:00,
2013-01-27 12:02:00,-20.0,-28.0,-100.00,NNW,330,5.0,7.0,66,0.00,,,0.00,,2013-01-27 21:02:00,
2013-01-27 12:12:00,-20.0,-28.0,-100.00,NNW,330,5.0,7.0,66,0.00,,,0.00,,2013-01-27 21:12:00,
2013-01-27 12:22:00,-21.0,-29.0,-100.00,NNW,335,7.0,8.0,66,0.00,,,0.00,,2013-01-27 21:22:00,
2013-01-27 12:32:00,-21.0,-29.0,-100.00,NNW,335,7.0,8.0,66,0.00,,,0.00,,2013-01-27 21:32:00,
2013-01-27 12:42:00,-21.0,-29.0,-100.00,NNW,335,7.0,8.0,66,0.00,,,0.00,,2013-01-27 21:42:00,
2013-01-27 12:52:00,-18.0,-27.0,-100.00,North,350,6.0,8.0,65,0.00,,,0.00,,2013-01-27 21:52:00,
2013-01-27 13:01:00,-18.0,-27.0,-100.00,North,350,6.0,8.0,65,0.00,,,0.00,,2013-01-27 22:01:00,
2013-01-27 13:11:00,-18.0,-27.0,-100.00,North,350,6.0,8.0,65,0.00,,,0.00,,2013-01-27 22:11:00,
2013-01-27 13:21:00,-18.0,-27.0,-100.00,NW,325,4.0,7.0,65,0.00,,,0.00,,2013-01-27 22:21:00,
2013-01-27 13:32:00,-18.0,-27.0,-100.00,NW,325,4.0,7.0,65,0.00,,,0.00,,2013-01-27 22:32:00,
2013-01-27 13:42:00,-18.0,-27.0,-100.00,NW,325,4.0,7.0,65,0.00,,,0.00,,2013-01-27 22:42:00,
2013-01-27 13:52:00,-18.0,-27.0,-100.00,North,0,3.0,6.0,64,0.00,,,0.00,,2013-01-27 22:52:00,
2013-01-27 14:02:00,-18.0,-27.0,-100.00,North,0,3.0,6.0,64,0.00,,,0.00,,2013-01-27 23:02:00,
2013-01-27 14:11:00,-18.0,-27.0,-100.00,North,0,3.0,6.0,64,0.00,,,0.00,,2013-01-27 23:11:00,
2013-01-27 14:21:00,-18.0,-27.0,-100.00,NNW,345,5.0,6.0,64,0.00,,,0.00,,2013-01-27 23:21:00,
2013-01-27 14:32:00,-18.0,-27.0,-100.00,NNW,345,5.0,6.0,64,0.00,,,0.00,,2013-01-27 23:32:00,
2013-01-27 14:41:00,-18.0,-27.0,-100.00,NNW,345,5.0,6.0,64,0.00,,,0.00,,2013-01-27 23:41:00,
2013-01-27 14:53:00,-20.0,-28.0,-100.00,NW,310,6.0,6.0,66,0.00,,,0.00,,2013-01-27 23:53:00,
2013-01-27 15:01:00,-20.0,-28.0,-100.00,NW,310,6.0,6.0,66,0.00,,,0.00,,2013-01-28 00:01:00,
2013-01-27 15:11:00,-20.0,-28.0,-100.00,NW,310,6.0,6.0,66,0.00,,,0.00,,2013-01-28 00:11:00,
2013-01-27 15:21:00,-20.0,-28.0,-100.00,NW,325,5.0,6.0,66,0.00,,,0.00,,2013-01-28 00:21:00,
2013-01-27 15:32:00,-20.0,-28.0,-100.00,NW,325,5.0,6.0,66,0.00,,,0.00,,2013-01-28 00:32:00,
2013-01-27 15:41:00,-20.0,-28.0,-100.00,NW,325,5.0,6.0,66,0.00,,,0.00,,2013-01-28 00:41:00,
2013-01-27 15:52:00,-20.0,-27.0,-100.00,NNW,340,4.0,7.0,66,0.00,,,0.00,,2013-01-28 00:52:00,
2013-01-27 16:01:00,-20.0,-27.0,-100.00,NNW,340,4.0,7.0,66,0.00,,,0.00,,2013-01-28 01:01:00,
2013-01-27 16:11:00,-20.0,-27.0,-100.00,NNW,340,4.0,7.0,66,0.00,,,0.00,,2013-01-28 01:11:00,
2013-01-27 16:21:00,-20.0,-28.0,-100.00,NNW,340,6.0,7.0,66,0.00,,,0.00,,2013-01-28 01:21:00,
2013-01-27 16:32:00,-20.0,-28.0,-100.00,NNW,340,6.0,7.0,66,0.00,,,0.00,,2013-01-28 01:32:00,
2013-01-27 16:42:00,-20.0,-28.0,-100.00,NNW,340,6.0,7.0,66,0.00,,,0.00,,2013-01-28 01:42:00,
2013-01-27 16:52:00,-20.0,-27.0,-100.00,NW,325,4.0,6.0,66,0.00,,,0.00,,2013-01-28 01:52:00,
2013-01-27 17:02:00,-20.0,-27.0,-100.00,NW,325,4.0,6.0,66,0.00,,,0.00,,2013-01-28 02:02:00,
2013-01-27 17:11:00,-20.0,-27.0,-100.00,NW,325,4.0,6.0,66,0.00,,,0.00,,2013-01-28 02:11:00,
2013-01-27 17:21:00,-20.0,-28.0,-100.00,NNW,345,4.0,6.0,66,0.00,,,0.00,,2013-01-28 02:21:00,
2013-01-27 17:32:00,-20.0,-28.0,-100.00,NNW,345,4.0,6.0,66,0.00,,,0.00,,2013-01-28 02:32:00,
2013-01-27 17:42:00,-20.0,-28.0,-100.00,NNW,345,4.0,6.0,66,0.00,,,0.00,,2013-01-28 02:42:00,
2013-01-27 17:52:00,-20.0,-28.0,-100.00,NW,320,3.0,4.0,66,0.00,,,0.00,,2013-01-28 02:52:00,
2013-01-27 18:02:00,-20.0,-28.0,-100.00,NW,320,3.0,4.0,66,0.00,,,0.00,,2013-01-28 03:02:00,
2013-01-27 18:11:00,-20.0,-28.0,-100.00,NW,320,3.0,4.0,66,0.00,,,0.00,,2013-01-28 03:11:00,
2013-01-27 18:21:00,-19.0,-27.0,-100.00,NNE,20,4.0,6.0,65,0.00,,,0.00,,2013-01-28 03:21:00,
2013-01-27 18:32:00,-19.0,-27.0,-100.00,NNE,20,4.0,6.0,65,0.00,,,0.00,,2013-01-28 03:32:00,
2013-01-27 18:41:00,-19.0,-27.0,-100.00,NNE,20,4.0,6.0,65,0.00,,,0.00,,2013-01-28 03:41:00,
2013-01-27 18:53:00,-19.0,-27.0,-100.00,NW,320,2.0,5.0,64,0.00,,,0.00,,2013-01-28 03:53:00,
2013-01-27 19:11:00,-19.0,-27.0,-100.00,NW,320,2.0,5.0,64,0.00,,,0.00,,2013-01-28 04:11:00,
2013-01-27 19:21:00,-19.0,-28.0,-100.00,NW,310,3.0,6.0,64,0.00,,,0.00,,2013-01-28 04:21:00,
2013-01-27 19:31:00,-19.0,-28.0,-100.00,NW,310,3.0,6.0,64,0.00,,,0.00,,2013-01-28 04:31:00,
2013-01-27 19:52:00,-20.0,-28.0,-100.00,NNW,330,3.0,4.0,64,0.00,,,0.00,,2013-01-28 04:52:00,
2013-01-27 20:03:00,-20.0,-28.0,-100.00,NNW,330,3.0,4.0,64,0.00,,,0.00,,2013-01-28 05:03:00,
2013-01-27 20:11:00,-20.0,-28.0,-100.00,NNW,330,3.0,4.0,64,0.00,,,0.00,,2013-01-28 05:11:00,
2013-01-27 20:21:00,-19.0,-28.0,-100.00,NW,320,4.0,6.0,63,0.00,,,0.00,,2013-01-28 05:21:00,
2013-01-27 20:52:00,-19.0,-28.0,-100.00,North,-999,-999.0,-999.0,63,0.00,,,0.00,,2013-01-28 05:52:00,
2013-01-27 21:11:00,-19.0,-28.0,-100.00,North,-999,-999.0,-999.0,63,0.00,,,0.00,,2013-01-28 06:11:00,
2013-01-27 21:21:00,-18.0,-28.0,-100.00,North,10,3.0,6.0,62,0.00,,,0.00,,2013-01-28 06:21:00,
2013-01-27 21:52:00,-17.0,-27.0,-100.00,NE,35,4.0,7.0,61,0.00,,,0.00,,2013-01-28 06:52:00,
2013-01-27 22:21:00,-18.0,-28.0,-100.00,South,185,1.0,7.0,61,0.00,,,0.00,,2013-01-28 07:21:00,
2013-01-27 22:31:00,-18.0,-28.0,-100.00,South,185,1.0,7.0,61,0.00,,,0.00,,2013-01-28 07:31:00,
2013-01-27 23:21:00,-19.0,-28.0,-100.00,NW,315,2.0,4.0,61,0.00,,,0.00,,2013-01-28 08:21:00,
2013-01-27 23:32:00,-19.0,-28.0,-100.00,NW,315,2.0,4.0,61,0.00,,,0.00,,2013-01-28 08:32:00,
2013-01-27 23:42:00,-19.0,-28.0,-100.00,NW,315,2.0,4.0,61,0.00,,,0.00,,2013-01-28 08:42:00,
2013-01-27 23:52:00,-18.0,-27.0,-100.00,NW,320,2.0,4.0,62,0.00,,,0.00,,2013-01-28 08:52:00,